Aérodrome :
LOGIN :

S'inscrire | Disclaimer

   EN    FR    IT 

 










Légende :    VFR   VFR Marginal   IFR   IFR Intensif   IFR Très Intensif
Visi : 
Plafond : 
>= 8 km
>= 3000ft
5 à 8 km
1000 à 3000 ft
1500m à 5 km
500 à 1000 ft
800 à 1500m
200 à 500 ft
< 800m
< 200 ft
Symboles :   Orages  Brouillard  Fortes neiges  Fortes précipitations  Vent > 20 kt
SIGMETs :   Divers  Orages  Givrage  Turbulence  Onde Orograph.  Cendres Volcan.







- Altitude de l'aérodrome : 75 ft
- Code IATA : MRH


EGYM - RAF Marham

DERNIER METAR :
  • 240750Z 25011KT 9999 FEW010 BKN100 13/09 Q1014 BLU NOSIG

METARs EXPIRÉS :
  • 240650Z 26011KT 9999 FEW012 OVC120 11/08 Q1013 BLU TEMPO BKN020 WHT
  • 240550Z 24010KT 9999 -RA FEW010 BKN080 11/09 Q1013 BLU TEMPO SCT020 WHT

TAF TAF EGYM
Valide du 24 à 06h jusqu'au 24 à 15h UTC


240428Z 2406/2415 23010KT 9999 FEW020
BECMG 2406/2409 BKN020
PROB30
TEMPO 2406/2410 7000 -RA
TEMPO 2410/2415 6000 RA BKN008
PROB40
TEMPO 2410/2415 4000 RADZ
Pas de NOTAMs connus pour ce terrain.



MET'MAP, la Météo Aéronautique d'un coup d'oeil ! - Copyright ORBIFLY Décembre 2007 - Disclaimer

ORBIFLY MET'MAP TEAM :

Programmation & Développement : Alexandra Zaïnal
Conception & Développement : Baudouin d'Aumeries
Co-Programmation & Développement : Marc-Olivier Méhu
Soutien technique & logistique : Manuel Goepfert

Contact : metmap@orbifly.com




SOURCES & CREDITS :

   NOAA